Location: Austin
(30.3000°N, 97.7500°W)
Time: 11:35:27
(UTC-05:00)

UNK - Pass Details

Date: 19 May 2026
Orbit: 653 x 672 km, 98.4° (Epoch: 11 June)

Event Time Altitude Azimuth Distance (km) Brightness Sun altitude
Rises 05:43:13 0° 143° (SE) 2,980 7.2 -10.7°
Reaches altitude 10° 05:45:38 10° 132° (SE) 2,069 6.5 -10.3°
Maximum altitude 05:49:33 30° 72° (ENE) 1,188 5.9 -9.5°
Drops below altitude 10° 05:53:27 10° 12° (NNE) 2,069 6.9 -8.8°
Sets 05:55:52 0° 1° (N) 2,982 7.5 -8.3°
